Waarnemingen

Advertentie
Mijn weer
Fair Isle, Groot Brittannië (3008): temperatuur & dauwpunt: 10.01.2021 02:00:00 - 16.01.2021 02:00:00 (GMT)Fair Isle, Groot Brittannië (3008): temperatuur -20cm & temperatuur -100cm: 10.01.2021 02:00:00 - 16.01.2021 02:00:00 (GMT)Fair Isle, Groot Brittannië (3008): windsnelheid & windstoten: 10.01.2021 02:00:00 - 16.01.2021 02:00:00 (GMT)Fair Isle, Groot Brittannië (3008): windrichting: 10.01.2021 02:00:00 - 16.01.2021 02:00:00 (GMT)Fair Isle, Groot Brittannië (3008): luchtdruk: 10.01.2021 02:00:00 - 16.01.2021 02:00:00 (GMT)Fair Isle, Groot Brittannië (3008): zicht: 10.01.2021 02:00:00 - 16.01.2021 02:00:00 (GMT)Fair Isle, Groot Brittannië (3008): neerslag: 10.01.2021 02:00:00 - 16.01.2021 02:00:00 (GMT)
Datum & Tijd tt [°C] td [°C] tt -20cm [°C] tt -100cm [°C] ff [km/u] ff [kn] fx [km/u] fx [kn] dd ppp [hPa] vv [km] rr [mm]
16.01.2021 02:00:00 5,5 1,6 - - 63 34 83 45 ZZO 1013,5 13 -
16.01.2021 01:00:00 5,7 2,1 - - 55 30 78 42 ZZO 1014,9 15 0,0
16.01.2021 00:00:00 5,5 2,6 - - 54 29 74 40 ZZO 1016,5 16 0,0
15.01.2021 23:00:00 5,2 2,7 - - 50 27 70 38 ZZO 1018,0 23 0,0
15.01.2021 22:00:00 5,4 3,7 - - 44 24 65 35 ZZO 1019,0 22 0,0
15.01.2021 21:00:00 4,8 2,7 - - 46 25 61 33 ZZO 1020,1 25 0,0
15.01.2021 20:00:00 5,4 3,6 - - 42 23 55 30 ZZO 1021,0 30 0,0
15.01.2021 19:00:00 6,1 3,5 - - 35 19 46 25 ZZO 1021,6 27 0,0
15.01.2021 18:00:00 5,5 3,2 - - 22 12 - - ZZO 1022,2 24 0,0
15.01.2021 17:00:00 5,2 3,4 - - 21 11 - - Z 1022,9 21 0,0
15.01.2021 16:00:00 5,3 4,0 - - 18 10 - - Z 1023,4 - 0,0
15.01.2021 15:00:00 5,9 4,6 - - 18 10 - - ZZW 1023,6 14 0,0
15.01.2021 14:00:00 5,9 5,2 - - 29 16 - - ZW 1023,9 4,1 0,0
15.01.2021 13:00:00 6,1 5,1 - - 26 14 - - ZW 1024,1 30 0,2
15.01.2021 12:00:00 6,1 5,0 - - 22 12 - - ZW 1024,0 24 0,4
15.01.2021 11:00:00 5,7 4,9 - - 24 13 - - ZW 1024,2 27 0,0
15.01.2021 10:00:00 5,7 5,2 - - 24 13 - - ZZW 1023,9 19 0,2
15.01.2021 09:00:00 5,6 5,4 4,9 5,9 24 13 - - Z 1023,7 3,7 0,2
15.01.2021 08:00:00 6,1 5,7 - - 22 12 - - Z 1023,2 24 0,4
15.01.2021 07:00:00 6,0 6,0 - - 34 18 52 28 ZO 1022,8 5 0,6
15.01.2021 06:00:00 5,4 5,2 - - 34 18 55 30 ZO 1023,1 2,8 0,0
15.01.2021 05:00:00 4,8 4,4 - - 44 24 61 33 ZZO 1023,4 4,0 0,2
15.01.2021 04:00:00 5,3 3,8 - - 46 25 63 34 ZZO 1023,5 12 0,0
15.01.2021 03:00:00 5,4 3,0 - - 46 25 61 33 ZZO 1023,7 27 0,0
15.01.2021 02:00:00 5,0 3,6 - - 41 22 55 30 ZO 1024,0 17 0,2
15.01.2021 01:00:00 5,0 3,3 - - 37 20 55 30 ZO 1024,0 6 0,2
15.01.2021 00:00:00 5,7 2,9 - - 35 19 55 30 ZO 1024,0 21 0,2
14.01.2021 23:00:00 5,6 2,4 - - 41 22 55 30 ZZO 1024,0 20 0,2
14.01.2021 22:00:00 5,2 2,7 - - 34 18 54 29 ZO 1024,0 25 0,4
14.01.2021 21:00:00 5,5 2,1 - - 35 19 50 27 ZZO 1023,8 16 0,0
14.01.2021 20:00:00 5,3 2,2 - - 37 20 55 30 ZO 1023,7 29 0,0
14.01.2021 19:00:00 5,3 1,9 - - 37 20 50 27 ZZO 1023,6 22 0,0
14.01.2021 18:00:00 5,5 0,6 - - 34 18 57 31 ZZO 1023,3 23 0,0
14.01.2021 17:00:00 5,1 -0,7 - - 35 19 50 27 ZZO 1023,1 28 0,0
14.01.2021 16:00:00 5,3 -1,1 - - 35 19 55 30 ZZO 1022,9 26 0,0
14.01.2021 15:00:00 5,1 1,2 - - 37 20 57 31 ZZO 1022,6 25 0,0
14.01.2021 14:00:00 5,4 -0,6 - - 35 19 55 30 ZZO 1022,5 30 0,0
14.01.2021 13:00:00 5,2 0,5 - - 29 16 52 28 ZO 1022,5 35 0,0
14.01.2021 12:00:00 5,3 -0,8 - - 39 21 55 30 ZZO 1022,3 27 0,0
14.01.2021 11:00:00 5,3 -0,4 - - 39 21 55 30 ZZO 1022,0 35 0,0
14.01.2021 10:00:00 4,9 -0,6 - - 35 19 54 29 ZO 1021,5 30 0,0
14.01.2021 09:00:00 4,9 -1,0 4,7 6,0 41 22 55 30 ZZO 1021,0 28 0,0
14.01.2021 08:00:00 4,8 -0,9 - - 41 22 55 30 ZZO 1020,3 28 0,0
14.01.2021 07:00:00 4,6 -0,5 - - 37 20 52 28 ZO 1020,2 30 0,0
14.01.2021 06:00:00 4,5 -1,0 - - 34 18 54 29 ZO 1019,6 29 0,0
14.01.2021 05:00:00 4,4 -1,2 - - 34 18 57 31 ZO 1019,3 35 0,0
14.01.2021 04:00:00 4,2 -1,4 - - 31 17 50 27 ZO 1019,1 50 0,0
14.01.2021 03:00:00 4,2 -1,6 - - 31 17 48 26 ZO 1019,0 35 0,0
14.01.2021 02:00:00 4,1 -2,0 - - 28 15 54 29 ZO 1018,9 45 0,0
14.01.2021 01:00:00 4,1 -2,0 - - 29 16 48 26 ZO 1018,6 50 0,0
14.01.2021 00:00:00 4,0 -2,2 - - 28 15 - - OZO 1018,6 45 0,0
13.01.2021 23:00:00 3,9 -2,9 - - 26 14 - - OZO 1018,3 50 0,0
13.01.2021 22:00:00 3,8 -2,5 - - 24 13 - - OZO 1018,0 45 0,0
13.01.2021 21:00:00 3,9 -1,9 - - 24 13 - - OZO 1017,6 40 0,0
13.01.2021 20:00:00 3,8 -2,7 - - 26 14 - - O 1017,2 50 0,0
13.01.2021 19:00:00 4,1 -1,8 - - 24 13 - - O 1017,2 35 0,0
13.01.2021 18:00:00 4,1 -1,4 - - 24 13 - - O 1016,8 30 0,0
13.01.2021 17:00:00 4,4 -1,1 - - 18 10 - - O 1016,7 27 0,0
13.01.2021 16:00:00 4,3 -1,1 - - 28 15 - - ONO 1016,1 30 0,0
13.01.2021 15:00:00 4,9 0,4 - - 24 13 - - ONO 1015,9 25 0,0
13.01.2021 14:00:00 5,1 2,2 - - 16 9 - - NO 1016,1 18 0,0
13.01.2021 13:00:00 4,7 2,1 - - 16 9 - - NNO 1016,2 22 0,2
13.01.2021 12:00:00 5,8 2,5 - - 21 11 - - N 1015,9 30 0,0
13.01.2021 11:00:00 5,1 1,6 - - 22 12 - - N 1015,9 30 0,0
13.01.2021 10:00:00 4,9 1,3 - - 29 16 - - N 1015,6 22 0,0
13.01.2021 09:00:00 4,7 0,8 4,9 6,0 28 15 - - N 1015,0 17 0,0
13.01.2021 08:00:00 4,7 -0,4 - - 31 17 46 25 N 1014,7 28 0,0
13.01.2021 07:00:00 4,7 -1,9 - - 35 19 52 28 N 1014,5 40 0,0
13.01.2021 06:00:00 4,7 -1,5 - - 34 18 54 29 NNW 1014,5 30 0,0
13.01.2021 05:00:00 4,8 -0,7 - - 37 20 55 30 NNW 1014,5 35 0,0
13.01.2021 04:00:00 4,4 0,4 - - 31 17 50 27 N 1014,1 17 0,0
13.01.2021 03:00:00 4,9 -2,3 - - 31 17 50 27 NNW 1014,1 35 0,0
13.01.2021 02:00:00 4,9 -0,7 - - 37 20 54 29 NNW 1013,9 25 0,0
13.01.2021 01:00:00 4,6 0,1 - - 35 19 61 33 NNW 1013,9 35 0,0
13.01.2021 00:00:00 4,5 0,0 - - 39 21 57 31 NNW 1014,0 25 0,0
12.01.2021 23:00:00 4,4 -0,5 - - 37 20 59 32 NNW 1013,8 30 0,0
12.01.2021 22:00:00 4,4 -0,4 - - 35 19 59 32 NNW 1013,4 30 0,0
12.01.2021 21:00:00 4,5 -0,6 - - 37 20 55 30 NNW 1013,3 28 0,0
12.01.2021 20:00:00 4,5 -2,0 - - 39 21 59 32 NNW 1013,0 30 0,0
12.01.2021 19:00:00 4,3 -1,0 - - 37 20 57 31 NNW 1012,6 30 0,0
12.01.2021 18:00:00 3,7 -0,6 - - 35 19 61 33 NNW 1012,4 35 0,0
12.01.2021 17:00:00 4,5 -1,2 - - 37 20 55 30 NNW 1012,0 27 0,0
12.01.2021 16:00:00 4,2 0,5 - - 29 16 57 31 NNW 1011,7 29 0,4
12.01.2021 15:00:00 3,4 0,8 - - 31 17 57 31 NNW 1011,5 25 0,0
12.01.2021 14:00:00 4,8 1,0 - - 28 15 59 32 NNW 1011,0 22 0,0
12.01.2021 13:00:00 4,0 -0,7 - - 31 17 57 31 NNW 1010,8 30 0,0
12.01.2021 12:00:00 4,6 0,4 - - 31 17 54 29 NNW 1010,8 35 0,0
12.01.2021 11:00:00 2,7 -0,3 - - 29 16 63 34 NNW 1010,9 25 0,0
12.01.2021 10:00:00 4,9 -2,4 - - 28 15 55 30 NW 1010,1 35 0,0
12.01.2021 09:00:00 3,8 -1,9 4,9 6,2 31 17 57 31 NNW 1009,8 28 0,2
12.01.2021 08:00:00 4,5 -3,0 - - 31 17 54 29 NNW 1009,0 30 0,0
12.01.2021 07:00:00 4,4 -1,6 - - 28 15 54 29 NNW 1008,4 23 0,0
12.01.2021 06:00:00 4,1 -2,6 - - 35 19 55 30 NNW 1007,7 30 0,0
12.01.2021 05:00:00 4,1 -0,2 - - 29 16 55 30 N 1007,0 23 0,0
12.01.2021 04:00:00 4,2 -2,6 - - 29 16 46 25 N 1006,1 30 0,0
12.01.2021 03:00:00 3,4 -0,7 - - 31 17 50 27 N 1005,5 30 0,0
12.01.2021 02:00:00 2,0 -0,5 - - 35 19 59 32 NNO 1004,4 45 0,0
12.01.2021 01:00:00 2,9 0,4 - - 41 22 68 37 N 1002,3 25 0,0
12.01.2021 00:00:00 4,4 -1,6 - - 42 23 72 39 NNW 1000,9 25 0,0
11.01.2021 23:00:00 4,8 -1,1 - - 52 28 74 40 NNW 999,8 21 0,0
11.01.2021 22:00:00 4,3 1,7 - - 34 18 72 39 NW 999,6 14 0,0
11.01.2021 21:00:00 4,0 0,6 - - 35 19 63 34 WNW 999,2 17 0,0
11.01.2021 20:00:00 4,2 -2,7 - - 35 19 57 31 NW 999,3 24 0,0
11.01.2021 19:00:00 3,1 0,2 - - 24 13 57 31 WNW 999,2 23 0,0
11.01.2021 18:00:00 3,3 -1,3 - - 26 14 61 33 NW 998,9 22 0,0
11.01.2021 17:00:00 2,3 0,2 - - 39 21 63 34 W 999,1 45 0,2
11.01.2021 16:00:00 3,4 -3,0 - - 31 17 52 28 W 999,0 40 0,0
11.01.2021 15:00:00 2,6 -2,5 - - 28 15 50 27 WNW 999,4 50 0,0
11.01.2021 14:00:00 2,5 -4,0 - - 18 10 - - NW 999,6 45 0,0
11.01.2021 13:00:00 2,3 -4,2 - - 24 13 - - NW 999,7 50 0,0
11.01.2021 12:00:00 2,0 -1,6 - - 18 10 - - NNW 1000,0 50 0,0
11.01.2021 11:00:00 0,7 0,0 - - 11 6 - - N 1000,3 21 0,2
11.01.2021 10:00:00 0,7 -1,1 - - 21 11 - - NNW 1000,5 1,6 0,0
11.01.2021 09:00:00 1,2 -0,1 5,0 6,2 18 10 - - N 1000,7 24 0,0
11.01.2021 08:00:00 2,6 -2,9 - - 15 8 - - NNW 1000,5 27 0,0
11.01.2021 07:00:00 2,5 -1,9 - - 13 7 - - NW 1000,7 30 0,0
11.01.2021 06:00:00 1,7 0,3 - - 11 6 - - N 1001,1 40 0,0
11.01.2021 05:00:00 2,0 0,7 - - 16 9 - - NNO 1001,2 45 0,2
11.01.2021 04:00:00 2,2 1,5 - - 24 13 - - NNO 1001,5 11 0,0
11.01.2021 03:00:00 2,6 2,2 - - 18 10 - - N 1001,9 6 0,4
11.01.2021 02:00:00 2,8 1,9 - - 11 6 - - NW 1002,4 5 0,6
11.01.2021 01:00:00 2,8 1,9 - - 8 4 - - WNW 1003,2 19 1,0
11.01.2021 00:00:00 2,8 2,0 - - 9 5 - - WZW 1004,0 13 0,8
10.01.2021 23:00:00 2,8 1,8 - - 9 5 - - WZW 1005,0 15 0,4
10.01.2021 22:00:00 2,9 1,6 - - 13 7 - - WZW 1006,1 14 0,8
10.01.2021 21:00:00 2,6 1,3 - - 15 8 - - W 1007,1 7 0,2
10.01.2021 20:00:00 2,5 1,2 - - 15 8 - - WNW 1007,8 9 1,0
10.01.2021 19:00:00 3,4 0,1 - - 15 8 - - WNW 1008,5 14 0,0
10.01.2021 18:00:00 4,0 -1,3 - - 24 13 - - W 1009,1 16 0,0
10.01.2021 17:00:00 4,2 -1,0 - - 24 13 - - WNW 1009,5 23 0,0
10.01.2021 16:00:00 4,0 -1,6 - - 31 17 52 28 W 1010,0 30 0,0
10.01.2021 15:00:00 3,9 -1,2 - - 31 17 52 28 W 1010,4 30 0,0
10.01.2021 14:00:00 3,3 0,2 - - 31 17 55 30 W 1010,8 30 0,2
10.01.2021 13:00:00 3,7 -0,2 - - 31 17 52 28 W 1011,2 26 0,0
10.01.2021 12:00:00 4,3 -0,4 - - 29 16 50 27 W 1011,9 23 0,0
10.01.2021 11:00:00 3,6 0,5 - - 31 17 57 31 WNW 1012,5 13 0,0
10.01.2021 10:00:00 3,2 0,5 - - 34 18 55 30 W 1012,9 20 0,4
10.01.2021 09:00:00 3,9 -0,4 5,2 6,4 34 18 50 27 W 1013,0 17 0,0
10.01.2021 08:00:00 3,5 -0,7 - - 34 18 52 28 W 1013,4 22 0,4
10.01.2021 07:00:00 2,4 0,3 - - 39 21 57 31 WZW 1014,0 8 0,0
10.01.2021 06:00:00 1,4 -1,3 - - 35 19 57 31 W 1014,6 4,2 0,0
10.01.2021 05:00:00 3,4 0,4 - - 29 16 52 28 WZW 1014,6 11 0,0
10.01.2021 04:00:00 3,8 -2,8 - - 28 15 54 29 W 1014,9 23 0,0
10.01.2021 03:00:00 3,8 -2,8 - - 28 15 54 29 W 1015,3 27 0,0
10.01.2021 02:00:00 3,3 -0,9 - - 34 18 54 29 WNW 1015,4 13 0,0

tt = temperatuur
td = dauwpunt
tt -20cm = temperatuur -20cm
tt -100cm = temperatuur -100cm
ff = windsnelheid
fx = windstoten
dd = windrichting
ppp = luchtdruk
vv = zicht
rr = neerslag

Weerstations in de omgeving